period_start,C,m1,H,J0,J1,J2,J3,J4,J5,JA,JB,JC,JD,JJ,JK,JN,#
2017-06-29 00:00:49,-0.01,1.51,0.00,26.56,30.20,32.59,13.71,41.38,1020.52,2017.81,2901.99,2685.38,3046.04,600.07,591.35,57.29,0000 0000 0000 0000 000000
2017-06-29 00:05:50,-0.02,1.50,0.00,26.57,30.21,32.61,13.69,41.43,1020.49,2017.52,2901.95,2685.08,3046.00,599.85,591.01,57.34,0000 0000 0000 0000 000000
2017-06-29 00:10:52,-0.02,1.50,0.00,26.60,30.22,32.62,13.69,41.45,1020.48,2017.32,2901.80,2685.01,3046.00,599.83,590.91,57.39,0000 0000 0000 0000 000000
2017-06-29 00:15:53,-0.01,1.50,0.00,26.60,30.24,32.64,13.77,41.49,1020.22,2017.13,2901.51,2685.01,3046.00,600.48,591.49,57.44,0000 0000 0000 0000 000000
2017-06-29 00:20:55,0.00,1.50,0.00,26.61,30.25,32.66,13.66,41.42,1020.06,2017.04,2901.12,2685.00,3045.95,599.88,590.73,57.49,0000 0000 0000 0000 000000
2017-06-29 00:25:56,0.00,1.50,0.00,26.63,30.27,32.67,13.72,41.43,1020.04,2017.01,2901.03,2684.99,3045.70,600.14,590.84,57.54,0000 0000 0000 0000 000000
2017-06-29 00:30:57,0.00,1.50,0.00,26.65,30.28,32.69,13.73,41.33,1020.04,2017.01,2901.00,2684.98,3045.27,599.88,590.77,57.59,0000 0000 0000 0000 000000
2017-06-29 00:35:58,0.00,1.50,0.00,26.67,30.30,32.70,13.70,41.43,1020.02,2017.00,2901.00,2684.90,3045.02,600.00,590.79,57.64,0000 0000 0000 0000 000000
2017-06-29 00:41:00,0.01,1.50,0.00,26.68,30.31,32.71,13.60,41.37,1020.00,2017.00,2900.98,2684.38,3045.00,599.67,590.40,57.69,0000 0000 0000 0000 000000
2017-06-29 00:46:01,0.00,1.50,0.00,26.69,30.32,32.72,13.73,41.51,1019.89,2017.00,2900.97,2684.21,3045.00,600.39,590.98,57.74,0000 0000 0000 0000 000000
2017-06-29 00:51:02,0.00,1.50,0.00,26.71,30.33,32.74,13.67,41.38,1019.60,2017.00,2900.90,2684.15,3045.00,600.03,590.42,57.80,0000 0000 0000 0000 000000
2017-06-29 00:56:04,0.01,1.51,0.00,26.72,30.35,32.76,13.73,41.40,1019.55,2016.98,2900.47,2684.05,3044.96,600.03,590.46,57.85,0000 0000 0000 0000 000000
2017-06-29 01:01:05,0.01,1.51,0.00,26.72,30.36,32.77,13.70,41.43,1019.56,2016.98,2900.08,2684.00,3044.85,600.23,590.49,57.90,0000 0000 0000 0000 000000
2017-06-29 01:06:06,0.00,1.51,0.00,26.75,30.37,32.79,13.66,41.33,1019.56,2016.98,2900.10,2684.01,3044.78,599.84,590.32,57.95,0000 0000 0000 0000 000000
2017-06-29 01:11:07,0.01,1.51,0.00,26.75,30.39,32.80,13.74,41.48,1019.56,2016.97,2900.03,2684.00,3044.55,600.23,590.59,58.00,0000 0000 0000 0000 000000
2017-06-29 01:16:08,0.00,1.51,0.00,26.76,30.40,32.81,13.74,41.47,1019.55,2016.94,2900.01,2684.00,3044.29,599.97,590.27,58.05,0000 0000 0000 0000 000000
2017-06-29 01:21:09,-0.01,1.51,0.00,26.78,30.41,32.83,13.75,41.56,1019.56,2016.87,2900.00,2684.00,3044.03,600.33,590.57,58.10,0000 0000 0000 0000 000000
2017-06-29 01:26:11,0.00,1.51,0.00,26.80,30.42,32.84,13.67,41.54,1019.55,2016.81,2900.00,2683.97,3044.00,600.14,590.30,58.15,0000 0000 0000 0000 000000
2017-06-29 01:31:12,-0.04,1.50,0.00,26.81,30.44,32.86,13.72,41.52,1019.55,2016.41,2899.96,2683.95,3044.00,599.68,589.88,58.20,0000 0000 0000 0000 000000
2017-06-29 01:36:14,0.01,1.50,0.00,26.84,30.45,32.86,13.74,41.52,1019.53,2016.39,2899.70,2683.87,3043.99,600.05,590.21,58.25,0000 0000 0000 0000 000000
2017-06-29 01:41:15,-0.01,1.50,0.00,26.86,30.46,32.88,13.66,41.60,1019.47,2016.19,2899.27,2683.55,3043.95,599.91,589.89,58.30,0000 0000 0000 0000 000000
2017-06-29 01:46:16,0.01,1.50,0.00,26.87,30.47,32.89,13.73,41.53,1019.25,2016.09,2899.10,2683.22,3043.86,600.05,589.92,58.35,0000 0000 0000 0000 000000
2017-06-29 01:51:17,0.00,1.51,0.00,26.89,30.49,32.91,13.61,41.38,1019.33,2016.04,2899.02,2683.05,3043.42,600.12,589.87,58.40,0000 0000 0000 0000 000000
2017-06-29 01:56:18,0.00,1.51,0.00,26.90,30.50,32.91,13.66,41.50,1019.27,2016.01,2899.00,2683.01,3043.11,599.91,589.87,58.45,0000 0000 0000 0000 000000
2017-06-29 02:01:20,0.00,1.51,0.00,26.91,30.52,32.93,13.68,41.51,1019.14,2016.01,2899.00,2683.00,3043.02,600.16,589.96,58.50,0000 0000 0000 0000 000000
2017-06-29 02:06:21,0.00,1.51,0.00,26.92,30.52,32.95,13.73,41.52,1019.09,2016.00,2898.97,2683.00,3043.00,600.07,589.81,58.55,0000 0000 0000 0000 000000
2017-06-29 02:11:22,0.00,1.51,0.00,26.92,30.54,32.96,13.69,41.37,1019.07,2016.00,2898.90,2683.00,3042.99,599.94,589.60,58.60,0000 0000 0000 0000 000000
2017-06-29 02:16:23,0.00,1.51,0.00,26.94,30.55,32.97,13.71,41.21,1019.07,2016.00,2898.78,2682.97,3042.98,600.36,590.05,58.65,0000 0000 0000 0000 000000
2017-06-29 02:21:25,0.01,1.51,0.00,26.96,30.57,32.99,13.68,41.38,1019.06,2016.00,2898.42,2682.84,3042.89,600.12,589.69,58.70,0000 0000 0000 0000 000000
2017-06-29 02:26:26,0.01,1.51,0.00,26.98,30.57,33.00,13.72,41.35,1019.06,2016.00,2898.11,2682.65,3042.63,600.34,589.80,58.76,0000 0000 0000 0000 000000
2017-06-29 02:31:27,0.02,1.51,0.00,26.99,30.60,33.01,13.64,41.15,1019.05,2015.99,2898.03,2682.27,3042.20,599.76,589.39,58.81,0000 0000 0000 0000 000000
2017-06-29 02:36:29,0.01,1.51,0.00,27.00,30.60,33.02,13.65,41.28,1018.92,2015.98,2898.01,2682.08,3042.08,599.89,589.33,58.86,0000 0000 0000 0000 000000
2017-06-29 02:41:30,0.00,1.51,0.00,27.01,30.62,33.05,13.74,41.56,1018.88,2015.95,2898.00,2682.02,3042.01,600.23,589.65,58.91,0000 0000 0000 0000 000000
2017-06-29 02:46:31,-0.01,1.51,0.00,27.01,30.63,33.05,13.68,41.27,1018.76,2015.88,2897.99,2682.01,3042.00,599.81,589.01,58.96,0000 0000 0000 0000 000000
2017-06-29 02:51:32,-0.01,1.51,0.00,27.03,30.65,33.06,13.70,41.27,1018.94,2015.76,2897.97,2682.00,3041.99,600.03,589.41,59.01,0000 0000 0000 0000 000000
2017-06-29 02:56:33,-0.01,1.51,0.00,27.05,30.66,33.07,13.73,41.42,1018.76,2015.69,2897.95,2682.00,3041.99,600.21,589.32,59.06,0000 0000 0000 0000 000000
2017-06-29 03:01:34,-0.01,1.51,0.00,27.06,30.67,33.08,13.70,41.28,1018.60,2015.59,2897.87,2682.00,3041.98,600.15,589.25,59.11,0000 0000 0000 0000 000000
2017-06-29 03:06:36,-0.02,1.51,0.00,27.07,30.69,33.09,13.69,41.22,1018.59,2015.27,2897.60,2681.97,3041.87,599.88,589.02,59.16,0000 0000 0000 0000 000000
2017-06-29 03:11:37,0.00,1.51,0.00,27.08,30.70,33.10,13.66,41.25,1018.57,2015.06,2897.18,2681.90,3041.28,600.58,589.45,59.21,0000 0000 0000 0000 000000
2017-06-29 03:16:38,0.01,1.51,0.00,27.10,30.72,33.12,13.70,41.21,1018.57,2015.03,2897.05,2681.68,3041.05,600.65,589.63,59.26,0000 0000 0000 0000 000000
2017-06-29 03:21:39,0.01,1.51,0.00,27.11,30.73,33.14,13.70,41.44,1018.57,2015.00,2897.00,2681.19,3041.00,599.98,588.99,59.31,0000 0000 0000 0000 000000
2017-06-29 03:26:40,0.00,1.51,0.00,27.12,30.75,33.16,13.72,41.33,1018.51,2015.00,2896.99,2681.04,3041.00,600.19,589.13,59.36,0000 0000 0000 0000 000000
2017-06-29 03:31:41,0.00,1.51,0.00,27.15,30.76,33.16,13.62,41.34,1018.47,2014.99,2896.99,2681.01,3040.98,599.99,588.86,59.41,0000 0000 0000 0000 000000
2017-06-29 03:36:43,0.00,1.51,0.00,27.15,30.77,33.17,13.68,41.27,1018.52,2014.98,2896.98,2681.00,3040.94,599.92,588.83,59.46,0000 0000 0000 0000 000000
2017-06-29 03:41:44,0.01,1.51,0.00,27.17,30.80,33.20,13.62,41.19,1018.55,2014.94,2896.86,2681.00,3040.43,599.90,588.75,59.51,0000 0000 0000 0000 000000
2017-06-29 03:46:46,0.01,1.51,0.00,27.18,30.81,33.20,13.59,41.37,1018.44,2014.92,2896.28,2680.97,3040.08,599.90,588.73,59.56,0000 0000 0000 0000 000000
2017-06-29 03:51:47,-0.02,1.51,0.00,27.20,30.82,33.22,13.61,41.47,1018.12,2014.66,2896.01,2680.68,3040.00,599.42,588.14,59.61,0000 0000 0000 0000 000000
2017-06-29 03:56:48,-0.00,1.51,0.00,27.21,30.85,33.25,13.56,41.31,1018.10,2014.44,2895.99,2680.18,3040.00,599.34,587.89,59.66,0000 0000 0000 0000 000000
2017-06-29 04:01:49,-0.02,0.50,0.00,27.22,30.86,33.27,12.23,39.42,1018.09,2015.40,3328.95,2939.71,3362.21,536.99,526.73,0.03,0000 0000 0000 0000 000002
2017-06-29 04:06:51,-0.01,0.00,0.00,27.22,30.87,33.29,13.75,45.21,1018.07,2016.00,3542.17,3068.20,3522.52,599.96,588.41,0.04,0000 0000 0000 0000 000000
2017-06-29 04:11:52,-0.01,0.00,0.00,27.25,30.90,33.30,13.77,45.13,1018.04,2015.99,3541.18,3068.00,3521.79,600.23,588.60,0.09,0000 0000 0000 0000 000000
2017-06-29 04:16:54,-0.00,0.00,0.00,27.26,30.90,33.31,13.61,45.20,1017.98,2015.96,3540.82,3067.90,3521.06,600.01,588.28,0.14,0000 0000 0000 0000 000000
2017-06-29 04:21:55,0.00,0.00,0.00,27.27,30.92,33.33,13.68,45.13,1017.64,2015.94,3540.09,3067.31,3520.68,599.99,588.13,0.19,0000 0000 0000 0000 000000
2017-06-29 04:26:56,0.01,0.00,0.00,27.27,30.92,33.34,13.73,45.17,1017.61,2015.90,3539.99,3067.03,3520.03,599.87,587.92,0.24,0000 0000 0000 0000 000000
2017-06-29 04:31:57,0.00,0.00,0.00,27.29,30.94,33.35,13.77,45.08,1017.59,2015.82,3539.65,3067.00,3519.98,600.18,588.04,0.29,0000 0000 0000 0000 000000
2017-06-29 04:36:58,-0.00,0.00,0.00,27.30,30.95,33.35,13.66,45.08,1017.59,2015.63,3539.07,3067.00,3519.73,599.35,587.40,0.35,0000 0000 0000 0000 000000
2017-06-29 04:41:59,-0.02,0.00,0.00,27.30,30.96,33.38,13.71,45.15,1017.59,2015.31,3538.96,3066.82,3519.07,599.74,587.86,0.40,0000 0000 0000 0000 000000
2017-06-29 04:47:00,0.01,0.00,0.00,27.31,30.97,33.39,13.75,45.02,1017.55,2015.15,3538.75,3066.48,3518.99,600.43,588.42,0.45,0000 0000 0000 0000 000000
2017-06-29 04:52:02,0.01,0.00,0.00,27.32,30.98,33.40,13.75,45.08,1017.44,2015.18,3538.16,3066.21,3518.92,600.39,588.34,0.50,0000 0000 0000 0000 000000
2017-06-29 04:57:03,0.01,0.00,0.00,27.33,31.00,33.40,13.69,44.97,1017.58,2015.09,3537.97,3066.03,3518.28,600.18,588.11,0.55,0000 0000 0000 0000 000000
2017-06-29 05:02:04,0.01,0.00,0.00,27.35,31.00,33.41,13.68,45.02,1017.60,2015.03,3537.24,3065.98,3517.98,600.09,588.05,0.60,0000 0000 0000 0000 000000
2017-06-29 05:07:06,0.01,0.00,0.00,27.35,31.02,33.43,13.70,44.88,1017.59,2015.01,3537.00,3065.91,3517.73,600.09,588.12,0.65,0000 0000 0000 0000 000000
2017-06-29 05:12:07,0.01,0.00,0.00,27.35,31.02,33.44,13.69,44.79,1017.59,2015.00,3536.97,3065.61,3517.10,600.26,588.23,0.70,0000 0000 0000 0000 000000
2017-06-29 05:17:08,0.02,0.00,0.00,27.36,31.05,33.45,13.69,44.83,1017.51,2015.01,3536.20,3065.08,3516.98,599.85,587.76,0.75,0000 0000 0000 0000 000000
2017-06-29 05:22:09,0.02,0.01,0.00,27.38,31.05,33.47,13.70,44.93,1017.24,2015.01,3535.77,3065.00,3516.29,600.00,587.71,0.80,0000 0000 0000 0000 000000
2017-06-29 05:27:10,0.01,0.01,0.00,27.40,31.07,33.47,13.67,44.82,1017.12,2015.00,3534.94,3064.89,3515.97,600.05,587.69,0.85,0000 0000 0000 0000 000000
2017-06-29 05:32:12,0.04,0.01,0.00,27.40,31.07,33.49,13.63,44.84,1017.10,2015.00,3534.10,3064.22,3515.30,599.80,587.40,0.90,0000 0000 0000 0000 000000
2017-06-29 05:37:13,0.01,0.01,0.00,27.42,31.09,33.48,13.68,44.77,1016.91,2014.99,3533.65,3064.00,3514.94,600.07,587.47,0.95,0000 0000 0000 0000 000000
2017-06-29 05:42:14,0.01,0.01,0.00,27.42,31.10,33.51,13.70,44.75,1016.70,2014.99,3533.02,3063.98,3514.34,599.92,587.27,1.00,0000 0000 0000 0000 000000
2017-06-29 05:47:15,0.01,0.01,0.00,27.45,31.11,33.52,13.69,44.67,1016.68,2014.99,3532.68,3063.78,3514.01,599.88,587.19,1.05,0000 0000 0000 0000 000000
2017-06-29 05:52:17,0.02,0.01,0.00,27.46,31.12,33.53,13.64,44.67,1016.74,2014.98,3532.02,3063.14,3513.67,599.79,586.98,1.10,0000 0000 0000 0000 000000
2017-06-29 05:57:18,0.00,0.01,0.00,27.47,31.14,33.53,13.63,44.90,1016.64,2014.92,3531.79,3063.00,3513.05,600.13,587.31,1.15,0000 0000 0000 0000 000000
2017-06-29 06:02:19,0.01,0.01,0.00,27.49,31.15,33.54,13.65,44.92,1016.66,2014.85,3531.10,3062.97,3512.99,599.87,587.03,1.20,0000 0000 0000 0000 000000
2017-06-29 06:07:20,0.00,0.01,0.00,27.50,31.15,33.56,13.61,44.73,1016.63,2014.65,3530.96,3062.77,3512.50,599.76,586.78,1.25,0000 0000 0000 0000 000000
2017-06-29 06:12:22,0.00,0.01,0.00,27.50,31.17,33.57,13.64,44.66,1016.64,2014.57,3530.50,3062.32,3512.07,600.13,587.18,1.30,0000 0000 0000 0000 000000
2017-06-29 06:17:23,0.05,0.01,0.00,27.52,31.18,33.58,13.68,44.63,1016.65,2014.22,3529.36,3061.41,3511.21,600.14,587.24,1.35,0000 0000 0000 0000 000000
2017-06-29 06:22:24,0.01,0.02,0.00,27.52,31.20,33.59,13.73,44.58,1016.62,2014.11,3528.39,3060.99,3510.11,600.27,587.38,1.40,0000 0000 0000 0000 000000
2017-06-29 06:27:25,0.02,0.02,0.00,27.52,31.20,33.60,13.70,44.74,1016.62,2014.08,3527.85,3060.70,3509.81,599.52,586.52,1.45,0000 0000 0000 0000 000000
2017-06-29 06:32:27,0.04,0.02,0.00,27.53,31.21,33.61,13.63,44.57,1016.50,2014.05,3527.03,3059.53,3508.92,599.90,586.92,1.50,0000 0000 0000 0000 000000
2017-06-29 06:37:28,0.01,0.02,0.00,27.54,31.22,33.62,13.68,44.49,1016.15,2014.03,3526.98,3059.21,3508.46,600.23,586.99,1.55,0000 0000 0000 0000 000000
2017-06-29 06:42:29,0.01,0.02,0.00,27.55,31.22,33.63,13.61,44.46,1016.21,2014.01,3526.71,3059.07,3508.09,599.93,586.73,1.60,0000 0000 0000 0000 000000
2017-06-29 06:47:30,0.00,0.02,0.00,27.57,31.24,33.64,13.59,44.50,1016.25,2014.01,3526.20,3059.00,3508.00,599.85,586.61,1.65,0000 0000 0000 0000 000000
2017-06-29 06:52:31,0.00,0.02,0.00,27.57,31.25,33.65,13.59,44.41,1016.19,2014.00,3526.01,3059.00,3507.98,599.81,586.52,1.70,0000 0000 0000 0000 000000
2017-06-29 06:57:32,0.00,0.02,0.00,27.57,31.25,33.67,13.69,44.41,1016.14,2014.00,3525.97,3058.97,3507.84,599.79,586.46,1.75,0000 0000 0000 0000 000000
2017-06-29 07:02:34,0.03,0.02,0.00,27.57,31.27,33.68,13.62,44.41,1016.13,2014.00,3525.38,3058.72,3507.19,599.91,586.65,1.80,0000 0000 0000 0000 000000
2017-06-29 07:07:35,0.01,0.02,0.00,27.57,31.27,33.68,13.67,44.33,1016.10,2014.00,3525.02,3058.34,3507.01,599.91,586.55,1.85,0000 0000 0000 0000 000000
2017-06-29 07:12:37,0.00,0.03,0.00,27.56,31.27,33.69,13.60,44.35,1015.88,2014.00,3524.99,3058.08,3507.00,599.60,586.27,1.90,0000 0000 0000 0000 000000
2017-06-29 07:17:38,0.00,0.03,0.00,27.57,31.28,33.70,13.72,44.35,1015.75,2014.00,3524.90,3058.02,3506.97,600.24,586.72,1.95,0000 0000 0000 0000 000000
2017-06-29 07:22:39,0.01,0.03,0.00,27.58,31.30,33.71,13.73,44.41,1015.66,2014.00,3524.35,3058.00,3506.63,600.56,586.97,2.00,0000 0000 0000 0000 000000
2017-06-29 07:27:41,0.00,0.03,0.00,27.60,31.30,33.71,13.63,44.41,1015.65,2014.00,3524.01,3057.99,3506.10,599.90,586.42,2.05,0000 0000 0000 0000 000000
2017-06-29 07:32:42,0.03,0.03,0.00,27.60,31.30,33.71,13.64,44.52,1015.64,2013.99,3523.72,3057.70,3505.73,599.94,586.31,2.10,0000 0000 0000 0000 000000
2017-06-29 07:37:43,0.02,0.03,0.00,27.60,31.31,33.72,13.68,44.40,1015.63,2013.98,3523.01,3056.85,3504.97,600.25,586.61,2.15,0000 0000 0000 0000 000000
2017-06-29 07:42:45,0.03,0.03,0.00,27.60,31.32,33.73,13.68,44.44,1015.63,2013.99,3522.67,3056.30,3504.30,599.99,586.20,2.20,0000 0000 0000 0000 000000
2017-06-29 07:47:46,0.00,0.03,0.00,27.60,31.32,33.72,13.67,44.41,1015.64,2013.98,3522.34,3056.10,3504.04,600.31,586.65,2.25,0000 0000 0000 0000 000000
2017-06-29 07:52:47,0.00,0.03,0.00,27.60,31.32,33.75,13.69,44.42,1015.64,2013.98,3522.05,3056.02,3504.00,600.25,586.51,2.30,0000 0000 0000 0000 000000
2017-06-29 07:57:49,0.00,0.03,0.00,27.59,31.33,33.76,13.67,44.42,1015.64,2013.96,3522.02,3056.01,3504.00,599.66,586.04,2.35,0000 0000 0000 0000 000000
2017-06-29 08:02:50,0.00,0.03,0.00,27.60,31.35,33.75,13.59,44.47,1015.60,2013.94,3522.00,3056.00,3503.99,599.88,586.29,2.40,0000 0000 0000 0000 000000
2017-06-29 08:07:51,-0.00,0.03,0.00,27.59,31.35,33.76,13.60,44.44,1015.60,2013.87,3521.96,3056.00,3503.91,599.81,586.04,2.45,0000 0000 0000 0000 000000
2017-06-29 08:12:53,0.00,0.03,0.00,27.59,31.35,33.76,13.66,44.42,1015.53,2013.81,3521.65,3055.98,3503.52,600.51,586.82,2.50,0000 0000 0000 0000 000000
2017-06-29 08:17:54,-0.01,0.03,0.00,27.59,31.35,33.77,13.53,44.42,1015.30,2013.68,3521.32,3055.98,3503.23,599.71,585.90,2.55,0000 0000 0000 0000 000000
2017-06-29 08:22:55,0.00,0.03,0.00,27.60,31.35,33.78,13.67,44.47,1015.23,2013.63,3521.07,3055.91,3503.03,600.12,586.27,2.60,0000 0000 0000 0000 000000
2017-06-29 08:27:56,-0.00,0.03,0.00,27.60,31.36,33.78,13.62,44.42,1015.19,2013.51,3521.00,3055.76,3503.00,599.81,585.95,2.65,0000 0000 0000 0000 000000
2017-06-29 08:32:57,0.00,0.03,0.00,27.60,31.37,33.78,13.61,44.42,1015.18,2013.42,3521.00,3055.37,3502.99,599.90,586.01,2.70,0000 0000 0000 0000 000000
2017-06-29 08:37:58,-0.01,0.03,0.00,27.61,31.37,33.80,13.70,44.42,1015.16,2013.25,3521.00,3055.25,3502.98,599.94,586.01,2.76,0000 0000 0000 0000 000000
2017-06-29 08:42:59,0.00,0.03,0.00,27.61,31.37,33.79,13.60,44.44,1015.15,2013.20,3520.97,3055.10,3502.97,600.19,586.23,2.81,0000 0000 0000 0000 000000
2017-06-29 08:48:01,-0.00,0.03,0.00,27.60,31.37,33.79,13.67,44.47,1015.15,2013.15,3520.93,3055.05,3502.89,600.07,586.15,2.86,0000 0000 0000 0000 000000
2017-06-29 08:53:02,0.00,0.03,0.00,27.60,31.37,33.80,13.67,44.45,1015.15,2013.09,3520.89,3055.03,3502.57,600.11,586.16,2.91,0000 0000 0000 0000 000000
2017-06-29 08:58:03,0.01,0.03,0.00,27.58,31.39,33.80,13.73,44.52,1015.15,2013.07,3520.69,3055.02,3502.21,599.88,586.01,2.96,0000 0000 0000 0000 000000
2017-06-29 09:03:05,0.00,0.03,0.00,27.57,31.40,33.80,13.67,44.52,1015.01,2013.04,3520.22,3055.00,3502.03,600.15,586.28,3.01,0000 0000 0000 0000 000000
2017-06-29 09:08:06,-0.00,0.03,0.00,27.57,31.40,33.81,13.58,44.46,1014.92,2013.03,3520.01,3054.99,3502.00,599.84,585.98,3.06,0000 0000 0000 0000 000000
2017-06-29 09:13:08,-0.00,0.03,0.00,27.57,31.40,33.81,13.60,44.42,1014.70,2013.02,3520.00,3054.98,3502.00,599.76,585.64,3.11,0000 0000 0000 0000 000000
2017-06-29 09:18:09,0.00,0.03,0.00,27.57,31.40,33.81,13.64,44.41,1014.67,2013.01,3520.00,3054.98,3501.99,600.01,585.86,3.16,0000 0000 0000 0000 000000
2017-06-29 09:23:10,0.00,0.03,0.00,27.56,31.40,33.83,13.62,44.52,1014.66,2013.01,3520.00,3054.90,3501.98,599.90,585.83,3.21,0000 0000 0000 0000 000000
2017-06-29 09:28:12,0.00,0.03,0.00,27.55,31.40,33.83,13.73,44.47,1014.65,2013.00,3519.99,3054.86,3501.96,600.16,586.01,3.26,0000 0000 0000 0000 000000
2017-06-29 09:33:13,0.00,0.03,0.00,27.55,31.40,33.83,13.58,44.33,1014.46,2013.00,3519.95,3054.77,3501.92,599.95,585.77,3.31,0000 0000 0000 0000 000000
2017-06-29 09:38:14,0.01,0.03,0.00,27.53,31.40,33.84,13.59,44.38,1014.21,2013.00,3519.77,3054.62,3501.83,599.67,585.40,3.36,0000 0000 0000 0000 000000
2017-06-29 09:43:15,0.01,0.03,0.00,27.52,31.40,33.83,13.63,44.36,1014.18,2013.01,3519.48,3054.54,3501.74,599.82,585.39,3.41,0000 0000 0000 0000 000000
2017-06-29 09:48:17,0.01,0.03,0.00,27.52,31.40,33.83,13.69,44.35,1013.81,2013.03,3519.32,3054.50,3501.63,600.05,585.43,3.46,0000 0000 0000 0000 000000
2017-06-29 09:53:18,-0.00,0.03,0.00,27.52,31.40,33.84,13.64,44.32,1013.69,2013.01,3519.16,3054.38,3501.53,600.08,585.43,3.51,0000 0000 0000 0000 000000
2017-06-29 09:58:19,0.00,0.03,0.00,27.52,31.40,33.84,13.65,44.27,1013.69,2013.03,3519.07,3054.31,3501.53,600.15,585.41,3.56,0000 0000 0000 0000 000000
2017-06-29 10:03:21,0.01,0.03,0.00,27.50,31.40,33.84,13.62,44.27,1013.69,2013.05,3519.01,3054.24,3501.31,599.95,585.45,3.61,0000 0000 0000 0000 000000
2017-06-29 10:08:22,0.00,0.04,0.00,27.50,31.40,33.85,13.63,44.27,1013.71,2013.03,3519.00,3054.12,3501.11,599.95,585.40,3.66,0000 0000 0000 0000 000000
2017-06-29 10:13:23,0.00,0.04,0.00,27.48,31.40,33.84,13.63,44.35,1013.69,2013.04,3519.00,3054.05,3501.05,599.98,585.45,3.71,0000 0000 0000 0000 000000
2017-06-29 10:18:24,-0.00,0.04,0.00,27.47,31.40,33.84,13.57,44.29,1013.68,2013.08,3519.00,3054.03,3501.06,599.91,585.33,3.76,0000 0000 0000 0000 000000
2017-06-29 10:23:26,0.01,0.04,0.00,27.46,31.40,33.83,13.56,44.29,1013.69,2013.14,3519.00,3054.04,3501.07,600.04,585.56,3.81,0000 0000 0000 0000 000000
2017-06-29 10:28:27,0.00,0.04,0.00,27.45,31.39,33.83,13.64,44.32,1013.61,2013.22,3518.99,3054.04,3501.06,599.95,585.47,3.86,0000 0000 0000 0000 000000
2017-06-29 10:33:28,0.01,0.04,0.00,27.45,31.38,33.82,13.61,44.38,1013.41,2013.38,3518.99,3054.06,3501.06,599.61,585.04,3.91,0000 0000 0000 0000 000000
2017-06-29 10:38:29,0.02,0.04,0.00,27.44,31.37,33.82,13.63,44.32,1013.46,2013.63,3518.98,3054.11,3501.10,599.93,585.34,3.96,0000 0000 0000 0000 000000
2017-06-29 10:43:30,0.01,0.04,0.00,27.42,31.37,33.83,13.58,44.29,1013.28,2013.63,3518.97,3054.10,3501.04,599.67,584.93,4.01,0000 0000 0000 0000 000000
2017-06-29 10:48:31,0.01,0.04,0.00,27.42,31.37,33.81,13.66,44.31,1013.20,2013.76,3518.94,3054.04,3501.03,600.11,585.50,4.06,0000 0000 0000 0000 000000
2017-06-29 10:53:33,0.01,0.04,0.00,27.41,31.37,33.81,13.61,44.36,1013.20,2013.94,3518.94,3054.16,3501.11,600.16,585.41,4.11,0000 0000 0000 0000 000000
2017-06-29 10:58:34,0.01,0.04,0.00,27.41,31.37,33.82,13.65,44.39,1013.19,2013.98,3518.75,3054.12,3501.12,600.13,585.41,4.16,0000 0000 0000 0000 000000
2017-06-29 11:03:36,0.00,0.04,0.00,27.40,31.36,33.80,13.62,44.47,1013.13,2013.99,3518.54,3054.12,3501.13,599.98,585.15,4.21,0000 0000 0000 0000 000000
2017-06-29 11:08:37,0.00,0.04,0.00,27.38,31.35,33.80,13.65,44.42,1013.07,2013.98,3518.20,3054.09,3501.09,600.25,585.54,4.26,0000 0000 0000 0000 000000
2017-06-29 11:13:38,0.00,0.04,0.00,27.36,31.35,33.80,13.62,44.52,1012.74,2013.99,3518.05,3054.08,3501.08,600.06,585.25,4.31,0000 0000 0000 0000 000000
2017-06-29 11:18:40,-0.00,0.04,0.00,27.35,31.35,33.79,13.66,44.36,1012.72,2013.99,3518.07,3054.05,3501.02,599.87,585.02,4.36,0000 0000 0000 0000 000000
2017-06-29 11:23:41,0.00,0.04,0.00,27.35,31.33,33.77,13.64,44.40,1012.71,2013.99,3518.01,3054.04,3501.01,599.91,585.08,4.41,0000 0000 0000 0000 000000
2017-06-29 11:28:42,0.00,0.04,0.00,27.32,31.32,33.77,13.67,44.43,1012.71,2013.99,3518.02,3054.06,3501.01,600.04,585.28,4.46,0000 0000 0000 0000 000000
2017-06-29 11:33:43,-0.00,0.04,0.00,27.31,31.32,33.77,13.67,44.39,1012.70,2013.99,3518.00,3054.08,3501.02,600.10,585.39,4.51,0000 0000 0000 0000 000000
2017-06-29 11:38:45,-0.00,0.04,0.00,27.30,31.30,33.75,13.61,44.40,1012.71,2013.99,3518.01,3054.12,3501.05,600.01,585.19,4.56,0000 0000 0000 0000 000000
2017-06-29 11:43:46,0.00,0.04,0.00,27.29,31.30,33.74,13.62,44.32,1012.71,2013.99,3518.01,3054.18,3501.08,599.94,585.26,4.61,0000 0000 0000 0000 000000
2017-06-29 11:48:47,-0.00,0.04,0.00,27.27,31.28,33.75,13.64,44.35,1012.70,2013.99,3518.00,3054.27,3501.10,600.14,585.37,4.66,0000 0000 0000 0000 000000
2017-06-29 11:53:49,-0.01,0.04,0.00,27.25,31.27,33.73,13.60,44.35,1012.70,2014.01,3518.02,3054.66,3501.25,600.03,585.37,4.71,0000 0000 0000 0000 000000
2017-06-29 11:58:50,-0.00,0.04,0.00,27.25,31.27,33.73,13.63,44.33,1012.54,2014.01,3518.02,3054.72,3501.25,599.84,585.08,4.76,0000 0000 0000 0000 000000
2017-06-29 12:03:52,-0.01,0.04,0.00,27.22,31.25,33.72,13.65,44.39,1012.27,2014.01,3518.02,3054.82,3501.35,599.94,585.10,4.81,0000 0000 0000 0000 000000
2017-06-29 12:08:53,-0.00,0.04,0.00,27.20,31.25,33.70,13.69,44.35,1012.22,2014.04,3518.04,3054.94,3501.71,600.21,585.34,4.86,0000 0000 0000 0000 000000
2017-06-29 12:13:54,0.00,0.04,0.00,27.19,31.23,33.69,13.62,44.41,1012.22,2014.11,3518.05,3054.95,3501.83,599.57,584.81,4.91,0000 0000 0000 0000 000000
2017-06-29 12:18:56,0.01,0.04,0.00,27.16,31.22,33.69,13.60,44.34,1011.96,2014.26,3518.00,3054.96,3501.87,599.80,585.09,4.96,0000 0000 0000 0000 000000
2017-06-29 12:23:57,0.04,0.04,0.00,27.15,31.21,33.68,13.61,44.32,1011.75,2014.62,3518.02,3054.97,3501.86,600.06,585.13,5.01,0000 0000 0000 0000 000000
2017-06-29 12:28:58,0.00,0.04,0.00,27.14,31.20,33.66,13.66,44.41,1011.73,2014.81,3518.04,3054.98,3501.94,600.17,585.10,5.07,0000 0000 0000 0000 000000
2017-06-29 12:33:59,0.01,0.04,0.00,27.12,31.19,33.65,13.65,44.34,1011.73,2014.86,3518.07,3054.99,3501.96,600.09,585.08,5.12,0000 0000 0000 0000 000000
2017-06-29 12:39:00,0.01,0.04,0.00,27.11,31.17,33.64,13.61,44.48,1011.59,2014.96,3518.08,3054.99,3501.99,600.02,584.97,5.17,0000 0000 0000 0000 000000
2017-06-29 12:44:02,0.00,0.04,0.00,27.09,31.16,33.63,13.62,44.38,1011.25,2014.99,3518.10,3054.99,3501.99,599.89,584.67,5.22,0000 0000 0000 0000 000000
2017-06-29 12:49:03,-0.00,0.04,0.00,27.07,31.15,33.61,13.60,44.42,1011.25,2014.99,3518.44,3055.02,3501.99,599.89,584.67,5.27,0000 0000 0000 0000 000000
2017-06-29 12:54:05,0.00,0.04,0.00,27.05,31.14,33.61,13.64,44.46,1011.25,2014.99,3518.38,3055.02,3501.99,599.96,584.87,5.32,0000 0000 0000 0000 000000